Location: Devore Heights
(34.2372°N, 117.4156°W)
Time: 23:48:26
(UTC+00:00)

Transit 4A - Pass Details

Date: 14 September 2024
Orbit: 864 x 978 km, 66.8° (Epoch: 13 October)

Event Time Altitude Azimuth Distance (km) Brightness Sun altitude
Rises 09:40:50 0° 181° (S) 3,429 - -43.8°
Reaches altitude 10° 09:43:28 10° 173° (S) 2,500 - -43.4°
Maximum altitude 09:48:40 35° 108° (ESE) 1,366 - -42.7°
Exits shadow 09:51:50 21° 58° (ENE) 1,889 10.0 -42.2°
Drops below altitude 10° 09:53:57 10° 45° (NE) 2,555 10.8 -41.9°
Sets 09:56:39 0° 36° (NE) 3,515 11.7 -41.5°
